When you browse on this site, cookies collect data to enhance your experience and personalize the content and advertising you see.
Visit our Privacy Policy to learn more. By continuing to use the site, you agree to this use of cookies and data.
  • In Latvia
  • List of Countries
  • For 7 days
  • Water Temperature
  • Weather Map
  • Weather Widgets
  • user-avatar
    Login

    Hourly Weather Solonovka

    Today, 9 April, Thursday

    Time Temperature Precipitation Wind Pressure Humidity
    00:00 +6°C° 0 mm 1 mps 716 mmHg 94%
    01:00 +6°C° 0 mm 1 mps 716 mmHg 94%
    02:00 +6°C° 0 mm 1 mps 716 mmHg 94%
    03:00 +6°C° 0 mm 1 mps 716 mmHg 94%
    04:00 +5°C° 0 mm 0 mps 716 mmHg 94%
    05:00 +5°C° 0 mm 0 mps 716 mmHg 94%
    06:00 +5°C° 0 mm 0 mps 715 mmHg 94%
    07:00 +5°C° 0 mm 0 mps 715 mmHg 94%
    08:00 +7°C° 0 mm 1 mps 715 mmHg 94%
    09:00 +7°C° 0 mm 1 mps 715 mmHg 94%
    10:00 +8°C° 0 mm 1 mps 716 mmHg 93%
    11:00 +7°C° 0 mm 2 mps 716 mmHg 92%
    12:00 +7°C° 0 mm 2 mps 716 mmHg 92%
    13:00 +7°C° 0 mm 2 mps 717 mmHg 92%
    14:00 +6°C° 0 mm 2 mps 717 mmHg 93%
    15:00 +6°C° 0 mm 2 mps 717 mmHg 93%
    16:00 +5°C° 0.3 mm 2 mps 718 mmHg 95%
    17:00 +4°C° 0.3 mm 2 mps 719 mmHg 96%
    18:00 +2°C° 0.3 mm 3 mps 720 mmHg 98%
    19:00 +2°C° 1 mm 3 mps 721 mmHg 98%
    20:00 +1°C° 1 mm 3 mps 722 mmHg 98%
    21:00 +1°C° 1 mm 3 mps 723 mmHg 98%
    22:00 +1°C° 1.2 mm 3 mps 723 mmHg 97%
    23:00 0°C° 1.2 mm 3 mps 724 mmHg 97%

    Tomorrow, 10 April, Friday

    Time Temperature Precipitation Wind Pressure Humidity
    00:00 0°C° 1.2 mm 3 mps 725 mmHg 97%
    01:00 0°C° 0.7 mm 3 mps 725 mmHg 97%
    02:00 +1°C° 0.7 mm 2 mps 726 mmHg 97%
    03:00 +1°C° 0.7 mm 2 mps 726 mmHg 96%
    04:00 +2°C° 0.1 mm 1 mps 726 mmHg 96%
    05:00 +1°C° 0.1 mm 1 mps 727 mmHg 95%
    06:00 +1°C° 0.1 mm 1 mps 727 mmHg 94%
    07:00 +2°C° 0 mm 1 mps 727 mmHg 93%
    08:00 +1°C° 0 mm 0 mps 727 mmHg 92%
    09:00 +2°C° 0 mm 0 mps 727 mmHg 91%
    10:00 +3°C° 0 mm 1 mps 727 mmHg 90%
    11:00 +4°C° 0 mm 1 mps 727 mmHg 89%
    12:00 +4°C° 0 mm 1 mps 727 mmHg 88%
    13:00 +4°C° 0 mm 1 mps 726 mmHg 87%
    14:00 +5°C° 0 mm 1 mps 726 mmHg 86%
    15:00 +5°C° 0 mm 1 mps 725 mmHg 85%
    16:00 +5°C° 0 mm 1 mps 725 mmHg 86%
    17:00 +5°C° 0 mm 1 mps 725 mmHg 87%
    18:00 +4°C° 0 mm 1 mps 725 mmHg 88%
    19:00 +4°C° 0 mm 1 mps 725 mmHg 88%
    20:00 +3°C° 0 mm 1 mps 725 mmHg 88%
    21:00 +2°C° 0 mm 1 mps 725 mmHg 88%
    22:00 +2°C° 0 mm 1 mps 725 mmHg 87%
    23:00 +2°C° 0 mm 1 mps 724 mmHg 85%

    Day after tomorrow, 11 April, Saturday

    Time Temperature Precipitation Wind Pressure Humidity
    00:00 +1°C° 0 mm 0 mps 724 mmHg 84%
    01:00 +1°C° 0 mm 0 mps 724 mmHg 83%
    02:00 +1°C° 0 mm 0 mps 724 mmHg 81%
    03:00 +1°C° 0 mm 0 mps 723 mmHg 80%
    04:00 +1°C° 0 mm 0 mps 723 mmHg 78%
    05:00 +1°C° 0 mm 0 mps 723 mmHg 77%
    06:00 +1°C° 0 mm 0 mps 723 mmHg 75%
    07:00 +3°C° 0 mm 1 mps 723 mmHg 73%
    08:00 +5°C° 0 mm 1 mps 723 mmHg 72%
    09:00 +6°C° 0 mm 1 mps 723 mmHg 70%
    10:00 +7°C° 0 mm 1 mps 722 mmHg 68%
    11:00 +8°C° 0 mm 1 mps 722 mmHg 66%
    12:00 +9°C° 0 mm 1 mps 721 mmHg 65%
    13:00 +9°C° 0 mm 1 mps 721 mmHg 64%
    14:00 +10°C° 0 mm 1 mps 721 mmHg 62%
    15:00 +11°C° 0 mm 1 mps 720 mmHg 61%
    16:00 +10°C° 0 mm 1 mps 720 mmHg 65%
    17:00 +9°C° 0 mm 1 mps 720 mmHg 69%
    18:00 +9°C° 0 mm 1 mps 720 mmHg 72%
    19:00 +8°C° 0 mm 1 mps 720 mmHg 74%
    20:00 +6°C° 0 mm 0 mps 720 mmHg 76%
    21:00 +5°C° 0 mm 0 mps 720 mmHg 77%
    22:00 +5°C° 0 mm 0 mps 720 mmHg 77%
    23:00 +5°C° 0 mm 0 mps 720 mmHg 76%

    12 April, Sunday

    Time Temperature Precipitation Wind Pressure Humidity
    00:00 +4°C° 0 mm 0 mps 719 mmHg 76%
    01:00 +4°C° 0 mm 0 mps 719 mmHg 75%
    02:00 +4°C° 0 mm 0 mps 719 mmHg 74%
    03:00 +5°C° 0 mm 1 mps 718 mmHg 74%
    04:00 +5°C° 0 mm 1 mps 718 mmHg 73%
    05:00 +4°C° 0 mm 0 mps 718 mmHg 72%
    06:00 +4°C° 0 mm 0 mps 718 mmHg 72%
    07:00 +7°C° 0 mm 1 mps 718 mmHg 68%
    08:00 +8°C° 0 mm 1 mps 718 mmHg 64%
    09:00 +10°C° 0 mm 1 mps 718 mmHg 60%
    10:00 +11°C° 0 mm 1 mps 718 mmHg 56%
    11:00 +12°C° 0 mm 1 mps 718 mmHg 52%
    12:00 +14°C° 0 mm 1 mps 717 mmHg 49%
    13:00 +14°C° 0 mm 1 mps 717 mmHg 47%
    14:00 +15°C° 0 mm 1 mps 717 mmHg 45%
    15:00 +16°C° 0 mm 2 mps 717 mmHg 44%
    16:00 +15°C° 0 mm 1 mps 716 mmHg 48%
    17:00 +14°C° 0 mm 1 mps 716 mmHg 52%
    18:00 +14°C° 0 mm 1 mps 716 mmHg 56%
    19:00 +12°C° 0 mm 1 mps 716 mmHg 59%
    20:00 +11°C° 0 mm 1 mps 716 mmHg 62%
    21:00 +9°C° 0 mm 0 mps 716 mmHg 64%
    22:00 +9°C° 0 mm 0 mps 716 mmHg 64%
    23:00 +8°C° 0 mm 0 mps 716 mmHg 64%

    13 April, Monday

    Time Temperature Precipitation Wind Pressure Humidity
    00:00 +8°C° 0 mm 0 mps 716 mmHg 64%
    01:00 +8°C° 0 mm 0 mps 715 mmHg 64%
    02:00 +9°C° 0 mm 1 mps 715 mmHg 63%
    03:00 +8°C° 0 mm 1 mps 714 mmHg 63%
    04:00 +8°C° 0 mm 1 mps 714 mmHg 63%
    05:00 +8°C° 0 mm 1 mps 715 mmHg 62%
    06:00 +8°C° 0 mm 1 mps 715 mmHg 62%
    07:00 +10°C° 0 mm 1 mps 714 mmHg 57%
    08:00 +12°C° 0 mm 1 mps 714 mmHg 53%
    09:00 +13°C° 0 mm 1 mps 714 mmHg 48%
    10:00 +15°C° 0 mm 1 mps 714 mmHg 45%
    11:00 +16°C° 0 mm 1 mps 714 mmHg 43%
    12:00 +18°C° 0 mm 1 mps 714 mmHg 40%
    13:00 +19°C° 0 mm 1 mps 714 mmHg 40%
    14:00 +19°C° 0 mm 1 mps 714 mmHg 39%
    15:00 +20°C° 0 mm 1 mps 714 mmHg 39%
    16:00 +19°C° 0 mm 1 mps 714 mmHg 43%
    17:00 +19°C° 0 mm 1 mps 714 mmHg 46%
    18:00 +18°C° 0 mm 1 mps 713 mmHg 49%
    19:00 +16°C° 0 mm 1 mps 713 mmHg 53%
    20:00 +15°C° 0 mm 1 mps 713 mmHg 56%
    21:00 +13°C° 0 mm 0 mps 713 mmHg 59%
    22:00 +14°C° 0.1 mm 1 mps 713 mmHg 62%
    23:00 +14°C° 0.1 mm 1 mps 713 mmHg 65%

    14 April, Tuesday

    Time Temperature Precipitation Wind Pressure Humidity
    00:00 +13°C° 0.1 mm 1 mps 713 mmHg 67%
    01:00 +13°C° 0.3 mm 1 mps 713 mmHg 72%
    02:00 +12°C° 0.3 mm 1 mps 713 mmHg 77%
    03:00 +12°C° 0.3 mm 1 mps 713 mmHg 82%
    04:00 +11°C° 1.3 mm 1 mps 713 mmHg 86%
    05:00 +11°C° 1.3 mm 1 mps 713 mmHg 90%
    06:00 +11°C° 1.3 mm 1 mps 713 mmHg 94%
    07:00 +11°C° 1.7 mm 1 mps 714 mmHg 95%
    08:00 +11°C° 1.7 mm 1 mps 714 mmHg 95%
    09:00 +11°C° 1.7 mm 1 mps 715 mmHg 96%
    10:00 +12°C° 0.4 mm 1 mps 715 mmHg 95%
    11:00 +12°C° 0.4 mm 1 mps 716 mmHg 93%
    12:00 +13°C° 0.4 mm 2 mps 716 mmHg 91%
    13:00 +13°C° 0.3 mm 3 mps 716 mmHg 81%
    14:00 +14°C° 0.3 mm 4 mps 717 mmHg 71%
    15:00 +15°C° 0.3 mm 5 mps 717 mmHg 61%
    16:00 +14°C° 0.1 mm 5 mps 717 mmHg 63%
    17:00 +13°C° 0.1 mm 5 mps 718 mmHg 65%
    18:00 +13°C° 0.1 mm 5 mps 718 mmHg 66%
    19:00 +11°C° 0.3 mm 4 mps 719 mmHg 70%
    20:00 +10°C° 0.3 mm 4 mps 719 mmHg 73%
    21:00 +9°C° 0.3 mm 3 mps 720 mmHg 77%
    22:00 +8°C° 0.1 mm 3 mps 721 mmHg 78%
    23:00 +7°C° 0.1 mm 3 mps 722 mmHg 78%
    Show more